Flag for Japan Weather past 2 weeks in Minamisōma, Japan

Now
34 °F

Passing clouds.


Feels Like: 34 °F
Forecast: 30 / 42 °F
Wind: 2 mph from North

Location: Sendai Airport

Current Time: Dec 22, 2014 at 6:34:25 PM

Latest Report: Dec 22, 2014 at 6:00 PM


Visibility: N/A

Pressure: 29.77 "Hg

Humidity: 81%

Dew point: 28 °F

Location of MinamisōmaLocation

Historic Weather in Minamisōma — Graph

°F

Minamisōma temperature yesterday

Maximum temperature yesterday: 41 °F (at 11:00 AM)
Minimum temperature yesterday: 32 °F (at 7:00 PM)
Average temperature yesterday: 38 °F

Past Weeks' High & Low Weather Summary

 TemperatureHumidityPressure
High57 °F (Dec 11, 1:00 PM)100% (Dec 13, 6:00 PM)30.42 "Hg (Dec 13, 6:00 PM)
Low27 °F (Dec 15, 7:00 AM)30% (Dec 15, 1:00 PM)29.24 "Hg (Dec 16, 9:00 PM)
Average37 °F68%29.97 "Hg
* Reported Dec 7 5:00 PM — Dec 22 5:00 PM, Minamisōma, Weather by CustomWeather, © 2014

Note: Actual official high and low records may vary slightly from our data, if they occured in-between our weather recording intervals... More about our weather records

Advertising

Minamisōma weather history for previous 24 hours

 ConditionsComfort  
Time TempWeatherWind HumidityBarometerVisibility
5:00 PM
Dec 22
34 °FPartly cloudy.6 mph81%29.77 "HgN/A
4:00 PM36 °FPartly sunny.7 mph65%29.77 "HgN/A
3:00 PM37 °FBroken clouds.13 mph56%29.77 "HgN/A
2:00 PM39 °FScattered clouds.12 mph48%29.74 "HgN/A
1:00 PM39 °FSnow flurries. Partly sunny.8 mph56%29.77 "HgN/A
12:00 PM37 °FScattered clouds.2 mph60%29.77 "HgN/A
11:00 AM37 °FPassing clouds.2 mph60%29.80 "HgN/A
10:00 AM36 °FPartly sunny.5 mph65%29.83 "HgN/A
9:00 AM34 °FPartly sunny.3 mph65%29.83 "HgN/A
8:00 AM32 °FPartly sunny.6 mph75%29.83 "HgN/A
7:00 AM27 °FPartly sunny.3 mph86%29.83 "HgN/A
6:00 AM28 °FPassing clouds.5 mph80%29.83 "HgN/A
9:00 PM
Dec 21
32 °FPassing clouds.5 mph75%29.83 "HgN/A
8:00 PM32 °FPassing clouds.8 mph75%29.80 "HgN/A
7:00 PM32 °FPassing clouds.8 mph75%29.83 "HgN/A
6:00 PM34 °FPassing clouds.7 mph70%29.83 "HgN/A
Weather by CustomWeather, © 2014

See weather overviewHow to use our weather pages